Year,Month,Day,Hour,Minute,Value (Times are PST for temperature in C)
2006,07,25,00,00,18.80
2006,07,25,00,01,18.80
2006,07,25,00,02,18.80
2006,07,25,00,03,18.80
2006,07,25,00,04,18.80
2006,07,25,00,05,18.80
2006,07,25,00,06,18.70
2006,07,25,00,07,18.70
2006,07,25,00,08,18.60
2006,07,25,00,09,18.60
2006,07,25,00,10,18.60
2006,07,25,00,11,18.60
2006,07,25,00,12,18.60
2006,07,25,00,13,18.60
2006,07,25,00,14,18.60
2006,07,25,00,15,18.60
2006,07,25,00,16,18.60
2006,07,25,00,17,18.60
2006,07,25,00,18,18.60
2006,07,25,00,19,18.60
2006,07,25,00,20,18.60
2006,07,25,00,21,18.60
2006,07,25,00,22,18.60
2006,07,25,00,23,18.60
2006,07,25,00,24,18.60
2006,07,25,00,25,18.60
2006,07,25,00,26,18.60
2006,07,25,00,27,18.60
2006,07,25,00,28,18.60
2006,07,25,00,29,18.60
2006,07,25,00,30,18.60
2006,07,25,00,31,18.60
2006,07,25,00,32,18.60
2006,07,25,00,33,18.70
2006,07,25,00,34,18.70
2006,07,25,00,35,18.70
2006,07,25,00,36,18.80
2006,07,25,00,37,18.80
2006,07,25,00,38,18.80
2006,07,25,00,39,18.70
2006,07,25,00,40,18.70
2006,07,25,00,41,18.60
2006,07,25,00,42,18.60
2006,07,25,00,43,18.50
2006,07,25,00,44,18.50
2006,07,25,00,45,18.40
2006,07,25,00,46,18.40
2006,07,25,00,47,18.30
2006,07,25,00,48,18.30
2006,07,25,00,49,18.20
2006,07,25,00,50,18.20
2006,07,25,00,51,18.20
2006,07,25,00,52,18.20
2006,07,25,00,53,18.20
2006,07,25,00,54,18.10
2006,07,25,00,55,18.00
2006,07,25,00,56,17.90
2006,07,25,00,57,17.90
2006,07,25,00,58,17.90
2006,07,25,00,59,17.90
2006,07,25,01,00,17.90
2006,07,25,01,01,17.90
2006,07,25,01,02,17.90
2006,07,25,01,03,17.90
2006,07,25,01,04,17.90
2006,07,25,01,05,17.90
2006,07,25,01,06,17.90
2006,07,25,01,07,17.90
2006,07,25,01,08,17.90
2006,07,25,01,09,17.90
2006,07,25,01,10,17.80
2006,07,25,01,11,17.80
2006,07,25,01,12,17.80
2006,07,25,01,13,17.80
2006,07,25,01,14,17.90
2006,07,25,01,15,17.90
2006,07,25,01,16,17.90
2006,07,25,01,17,17.90
2006,07,25,01,18,17.90
2006,07,25,01,19,17.90
2006,07,25,01,20,17.90
2006,07,25,01,21,17.90
2006,07,25,01,22,17.90
2006,07,25,01,23,17.90
2006,07,25,01,24,17.90
2006,07,25,01,25,17.90
2006,07,25,01,26,17.90
2006,07,25,01,27,17.80
2006,07,25,01,28,17.80
2006,07,25,01,29,17.80
2006,07,25,01,30,17.80
2006,07,25,01,31,17.90
2006,07,25,01,32,17.90
2006,07,25,01,33,17.90
2006,07,25,01,34,17.90
2006,07,25,01,35,17.90
2006,07,25,01,36,17.90
2006,07,25,01,37,17.90
2006,07,25,01,38,17.90
2006,07,25,01,39,17.90
2006,07,25,01,40,17.90
2006,07,25,01,41,17.90
2006,07,25,01,42,17.90
2006,07,25,01,43,17.80
2006,07,25,01,44,17.80
2006,07,25,01,45,17.80
2006,07,25,01,46,17.80
2006,07,25,01,47,17.80
2006,07,25,01,48,17.70
2006,07,25,01,49,17.70
2006,07,25,01,50,17.70
2006,07,25,01,51,17.70
2006,07,25,01,52,17.70
2006,07,25,01,53,17.80
2006,07,25,01,54,17.80
2006,07,25,01,55,17.80
2006,07,25,01,56,17.70
2006,07,25,01,57,17.70
2006,07,25,01,58,17.70
2006,07,25,01,59,17.70
2006,07,25,02,00,17.70
2006,07,25,02,01,17.70
2006,07,25,02,02,17.70
2006,07,25,02,03,17.70
2006,07,25,02,04,17.70
2006,07,25,02,05,17.70
2006,07,25,02,06,17.70
2006,07,25,02,07,17.70
2006,07,25,02,08,17.70
2006,07,25,02,09,17.70
2006,07,25,02,10,17.60
2006,07,25,02,11,17.50
2006,07,25,02,12,17.60
2006,07,25,02,13,17.50
2006,07,25,02,14,17.50
2006,07,25,02,15,17.50
2006,07,25,02,16,17.50
2006,07,25,02,17,17.40
2006,07,25,02,18,17.40
2006,07,25,02,19,17.40
2006,07,25,02,20,17.40
2006,07,25,02,21,17.40
2006,07,25,02,22,17.40
2006,07,25,02,23,17.30
2006,07,25,02,24,17.40
2006,07,25,02,25,17.40
2006,07,25,02,26,17.40
2006,07,25,02,27,17.40
2006,07,25,02,28,17.40
2006,07,25,02,29,17.30
2006,07,25,02,30,17.30
2006,07,25,02,31,17.30
2006,07,25,02,32,17.30
2006,07,25,02,33,17.30
2006,07,25,02,34,17.30
2006,07,25,02,35,17.30
2006,07,25,02,36,17.30
2006,07,25,02,37,17.30
2006,07,25,02,38,17.30
2006,07,25,02,39,17.30
2006,07,25,02,40,17.30
2006,07,25,02,41,17.30
2006,07,25,02,42,17.30
2006,07,25,02,43,17.30
2006,07,25,02,44,17.30
2006,07,25,02,45,17.30
2006,07,25,02,46,17.30
2006,07,25,02,47,17.30
2006,07,25,02,48,17.30
2006,07,25,02,49,17.30
2006,07,25,02,50,17.30
2006,07,25,02,51,17.30
2006,07,25,02,52,17.30
2006,07,25,02,53,17.30
2006,07,25,02,54,17.30
2006,07,25,02,55,17.30
2006,07,25,02,56,17.30
2006,07,25,02,57,17.30
2006,07,25,02,58,17.40
2006,07,25,02,59,17.50
2006,07,25,03,00,17.50
2006,07,25,03,01,17.50
2006,07,25,03,02,17.60
2006,07,25,03,03,17.60
2006,07,25,03,04,17.60
2006,07,25,03,05,17.60
2006,07,25,03,06,17.60
2006,07,25,03,07,17.70
2006,07,25,03,08,17.70
2006,07,25,03,09,17.70
2006,07,25,03,10,17.60
2006,07,25,03,11,17.60
2006,07,25,03,12,17.50
2006,07,25,03,13,17.50
2006,07,25,03,14,17.50
2006,07,25,03,15,17.50
2006,07,25,03,16,17.50
2006,07,25,03,17,17.40
2006,07,25,03,18,17.40
2006,07,25,03,19,17.40
2006,07,25,03,20,17.40
2006,07,25,03,21,17.30
2006,07,25,03,22,17.30
2006,07,25,03,23,17.30
2006,07,25,03,24,17.30
2006,07,25,03,25,17.30
2006,07,25,03,26,17.30
2006,07,25,03,27,17.20
2006,07,25,03,28,17.10
2006,07,25,03,29,17.10
2006,07,25,03,30,17.00
2006,07,25,03,31,17.00
2006,07,25,03,32,17.00
2006,07,25,03,33,17.00
2006,07,25,03,34,17.00
2006,07,25,03,35,17.00
2006,07,25,03,36,16.90
2006,07,25,03,37,17.00
2006,07,25,03,38,17.00
2006,07,25,03,39,16.90
2006,07,25,03,40,16.90
2006,07,25,03,41,17.00
2006,07,25,03,42,17.00
2006,07,25,03,43,17.00
2006,07,25,03,44,17.00
2006,07,25,03,45,17.00
2006,07,25,03,46,17.00
2006,07,25,03,47,17.00
2006,07,25,03,48,17.00
2006,07,25,03,49,17.00
2006,07,25,03,50,17.00
2006,07,25,03,51,17.00
2006,07,25,03,52,17.00
2006,07,25,03,53,17.00
2006,07,25,03,54,17.00
2006,07,25,03,55,17.00
2006,07,25,03,56,17.00
2006,07,25,03,57,17.00
2006,07,25,03,58,17.00
2006,07,25,03,59,16.90
2006,07,25,04,00,16.90
2006,07,25,04,01,16.90
2006,07,25,04,02,16.80
2006,07,25,04,03,16.70
2006,07,25,04,04,16.70
2006,07,25,04,05,16.70
2006,07,25,04,06,16.60
2006,07,25,04,07,16.60
2006,07,25,04,08,16.50
2006,07,25,04,09,16.40
2006,07,25,04,10,16.40
2006,07,25,04,11,16.40
2006,07,25,04,12,16.40
2006,07,25,04,13,16.40
2006,07,25,04,14,16.30
2006,07,25,04,15,16.30
2006,07,25,04,16,16.30
2006,07,25,04,17,16.30
2006,07,25,04,18,16.20
2006,07,25,04,19,16.20
2006,07,25,04,20,16.20
2006,07,25,04,21,16.20
2006,07,25,04,22,16.20
2006,07,25,04,23,16.20
2006,07,25,04,24,16.20
2006,07,25,04,25,16.20
2006,07,25,04,26,16.20
2006,07,25,04,27,16.20
2006,07,25,04,28,16.20
2006,07,25,04,29,16.20
2006,07,25,04,30,16.20
2006,07,25,04,31,16.20
2006,07,25,04,32,16.20
2006,07,25,04,33,16.10
2006,07,25,04,34,16.10
2006,07,25,04,35,16.10
2006,07,25,04,36,16.10
2006,07,25,04,37,16.10
2006,07,25,04,38,16.10
2006,07,25,04,39,16.10
2006,07,25,04,40,16.10
2006,07,25,04,41,16.10
2006,07,25,04,42,16.10
2006,07,25,04,43,16.10
2006,07,25,04,44,16.10
2006,07,25,04,45,16.10
2006,07,25,04,46,16.10
2006,07,25,04,47,16.10
2006,07,25,04,48,16.10
2006,07,25,04,49,16.10
2006,07,25,04,50,16.10
2006,07,25,04,51,16.10
2006,07,25,04,52,16.10
2006,07,25,04,53,16.10
2006,07,25,04,54,16.10
2006,07,25,04,55,16.10
2006,07,25,04,56,16.10
2006,07,25,04,57,16.10
2006,07,25,04,58,16.10
2006,07,25,04,59,16.10
2006,07,25,05,00,16.10
2006,07,25,05,01,16.10
2006,07,25,05,02,16.10
2006,07,25,05,03,16.10
2006,07,25,05,04,16.10
2006,07,25,05,05,16.10
2006,07,25,05,06,16.10
2006,07,25,05,07,16.10
2006,07,25,05,08,16.10
2006,07,25,05,09,16.10
2006,07,25,05,10,16.10
2006,07,25,05,11,16.10
2006,07,25,05,12,16.10
2006,07,25,05,13,16.10
2006,07,25,05,14,16.10
2006,07,25,05,15,16.10
2006,07,25,05,16,16.10
2006,07,25,05,17,16.00
2006,07,25,05,18,15.90
2006,07,25,05,19,15.90
2006,07,25,05,20,15.90
2006,07,25,05,21,15.90
2006,07,25,05,22,15.80
2006,07,25,05,23,15.80
2006,07,25,05,24,15.80
2006,07,25,05,25,15.80
2006,07,25,05,26,15.80
2006,07,25,05,27,15.80
2006,07,25,05,28,15.80
2006,07,25,05,29,15.80
2006,07,25,05,30,15.80
2006,07,25,05,31,15.80
2006,07,25,05,32,15.80
2006,07,25,05,33,15.80
2006,07,25,05,34,15.80
2006,07,25,05,35,15.80
2006,07,25,05,36,15.80
2006,07,25,05,37,15.80
2006,07,25,05,38,15.90
2006,07,25,05,39,15.90
2006,07,25,05,40,15.90
2006,07,25,05,41,15.90
2006,07,25,05,42,16.00
2006,07,25,05,43,16.10
2006,07,25,05,44,16.00
2006,07,25,05,45,15.90
2006,07,25,05,46,15.80
2006,07,25,05,47,15.80
2006,07,25,05,48,15.70
2006,07,25,05,49,15.70
2006,07,25,05,50,15.70
2006,07,25,05,51,15.80
2006,07,25,05,52,15.80
2006,07,25,05,53,15.80
2006,07,25,05,54,15.80
2006,07,25,05,55,15.60
2006,07,25,05,56,15.50
2006,07,25,05,57,15.40
2006,07,25,05,58,15.30
2006,07,25,05,59,15.30
2006,07,25,06,00,15.20
2006,07,25,06,01,15.20
2006,07,25,06,02,15.10
2006,07,25,06,03,15.10
2006,07,25,06,04,15.10
2006,07,25,06,05,15.00
2006,07,25,06,06,15.00
2006,07,25,06,07,14.90
2006,07,25,06,08,14.90
2006,07,25,06,09,14.90
2006,07,25,06,10,14.80
2006,07,25,06,11,14.80
2006,07,25,06,12,14.80
2006,07,25,06,13,14.80
2006,07,25,06,14,14.80
2006,07,25,06,15,14.80
2006,07,25,06,16,14.80
2006,07,25,06,17,14.80
2006,07,25,06,18,14.90
2006,07,25,06,19,14.90
2006,07,25,06,20,14.90
2006,07,25,06,21,14.90
2006,07,25,06,22,14.80
2006,07,25,06,23,14.80
2006,07,25,06,24,14.70
2006,07,25,06,25,14.60
2006,07,25,06,26,14.60
2006,07,25,06,27,14.50
2006,07,25,06,28,14.50
2006,07,25,06,29,14.50
2006,07,25,06,30,14.50
2006,07,25,06,31,14.50
2006,07,25,06,32,14.60
2006,07,25,06,33,14.60
2006,07,25,06,34,14.60
2006,07,25,06,35,14.60
2006,07,25,06,36,14.60
2006,07,25,06,37,14.60
2006,07,25,06,38,14.60
2006,07,25,06,39,14.70
2006,07,25,06,40,14.80
2006,07,25,06,41,14.80
2006,07,25,06,42,14.90
2006,07,25,06,43,15.00
2006,07,25,06,44,15.10
2006,07,25,06,45,15.20
2006,07,25,06,46,15.30
2006,07,25,06,47,15.40
2006,07,25,06,48,15.40
2006,07,25,06,49,15.50
2006,07,25,06,50,15.60
2006,07,25,06,51,15.70
2006,07,25,06,52,15.80
2006,07,25,06,53,15.90
2006,07,25,06,54,16.00
2006,07,25,06,55,16.10
2006,07,25,06,56,16.10
2006,07,25,06,57,16.20
2006,07,25,06,58,16.30
2006,07,25,06,59,16.40
2006,07,25,07,00,16.60
2006,07,25,07,01,16.60
2006,07,25,07,02,16.60
2006,07,25,07,03,16.70
2006,07,25,07,04,16.70
2006,07,25,07,05,16.70
2006,07,25,07,06,16.70
2006,07,25,07,07,16.80
2006,07,25,07,08,16.80
2006,07,25,07,09,16.80
2006,07,25,07,10,16.80
2006,07,25,07,11,16.80
2006,07,25,07,12,16.80
2006,07,25,07,13,16.90
2006,07,25,07,14,16.90
2006,07,25,07,15,16.90
2006,07,25,07,16,17.00
2006,07,25,07,17,17.00
2006,07,25,07,18,17.00
2006,07,25,07,19,17.00
2006,07,25,07,20,17.00
2006,07,25,07,21,17.00
2006,07,25,07,22,17.10
2006,07,25,07,23,17.10
2006,07,25,07,24,17.10
2006,07,25,07,25,17.20
2006,07,25,07,26,17.20
2006,07,25,07,27,17.10
2006,07,25,07,28,17.10
2006,07,25,07,29,17.20
2006,07,25,07,30,17.30
2006,07,25,07,31,17.30
2006,07,25,07,32,17.40
2006,07,25,07,33,17.50
2006,07,25,07,34,17.50
2006,07,25,07,35,17.60
2006,07,25,07,36,17.60
2006,07,25,07,37,17.60
2006,07,25,07,38,17.60
2006,07,25,07,39,17.60
2006,07,25,07,40,17.60
2006,07,25,07,41,17.60
2006,07,25,07,42,17.70
2006,07,25,07,43,17.70
2006,07,25,07,44,17.80
2006,07,25,07,45,17.90
2006,07,25,07,46,17.90
2006,07,25,07,47,17.90
2006,07,25,07,48,18.00
2006,07,25,07,49,18.10
2006,07,25,07,50,18.10
2006,07,25,07,51,18.20
2006,07,25,07,52,18.20
2006,07,25,07,53,18.40
2006,07,25,07,54,18.40
2006,07,25,07,55,18.50
2006,07,25,07,56,18.50
2006,07,25,07,57,18.60
2006,07,25,07,58,18.60
2006,07,25,07,59,18.60
2006,07,25,08,00,18.70
2006,07,25,08,01,18.70
2006,07,25,08,02,18.70
2006,07,25,08,03,18.70
2006,07,25,08,04,18.70
2006,07,25,08,05,18.50
2006,07,25,08,06,18.50
2006,07,25,08,07,18.50
2006,07,25,08,08,18.50
2006,07,25,08,09,18.50
2006,07,25,08,10,18.50
2006,07,25,08,11,18.40
2006,07,25,08,12,18.40
2006,07,25,08,13,18.50
2006,07,25,08,14,18.50
2006,07,25,08,15,18.50
2006,07,25,08,16,18.50
2006,07,25,08,17,18.40
2006,07,25,08,18,18.30
2006,07,25,08,19,18.20
2006,07,25,08,20,18.10
2006,07,25,08,21,18.10
2006,07,25,08,22,18.20
2006,07,25,08,23,18.20
2006,07,25,08,24,18.00
2006,07,25,08,25,17.80
2006,07,25,08,26,17.60
2006,07,25,08,27,17.50
2006,07,25,08,28,17.50
2006,07,25,08,29,17.40
2006,07,25,08,30,17.40
2006,07,25,08,31,17.40
2006,07,25,08,32,17.30
2006,07,25,08,33,17.30
2006,07,25,08,34,17.30
2006,07,25,08,35,17.30
2006,07,25,08,36,17.30
2006,07,25,08,37,17.30
2006,07,25,08,38,17.40
2006,07,25,08,39,17.40
2006,07,25,08,40,17.40
2006,07,25,08,41,17.30
2006,07,25,08,42,17.30
2006,07,25,08,43,17.30
2006,07,25,08,44,17.30
2006,07,25,08,45,17.30
2006,07,25,08,46,17.20
2006,07,25,08,47,17.20
2006,07,25,08,48,17.20
2006,07,25,08,49,17.30
2006,07,25,08,50,17.20
2006,07,25,08,51,17.20
2006,07,25,08,52,17.10
2006,07,25,08,53,17.00
2006,07,25,08,54,17.00
2006,07,25,08,55,16.80
2006,07,25,08,56,16.80
2006,07,25,08,57,16.70
2006,07,25,08,58,16.70
2006,07,25,08,59,16.70
2006,07,25,09,00,16.70
2006,07,25,09,01,16.80
2006,07,25,09,02,16.80
2006,07,25,09,03,16.90
2006,07,25,09,04,16.90
2006,07,25,09,05,17.00
2006,07,25,09,06,17.10
2006,07,25,09,07,17.20
2006,07,25,09,08,17.30
2006,07,25,09,09,17.40
2006,07,25,09,10,17.50
2006,07,25,09,11,17.60
2006,07,25,09,12,17.70
2006,07,25,09,13,17.90
2006,07,25,09,14,17.90
2006,07,25,09,15,17.90
2006,07,25,09,16,17.90
2006,07,25,09,17,17.90
2006,07,25,09,18,17.90
2006,07,25,09,19,17.90
2006,07,25,09,20,18.00
2006,07,25,09,21,18.10
2006,07,25,09,22,18.10
2006,07,25,09,23,18.20
2006,07,25,09,24,18.20
2006,07,25,09,25,18.30
2006,07,25,09,26,18.30
2006,07,25,09,27,18.40
2006,07,25,09,28,18.40
2006,07,25,09,29,18.40
2006,07,25,09,30,18.30
2006,07,25,09,31,18.20
2006,07,25,09,32,18.20
2006,07,25,09,33,18.30
2006,07,25,09,34,18.50
2006,07,25,09,35,18.60
2006,07,25,09,36,18.70
2006,07,25,09,37,18.90
2006,07,25,09,38,19.00
2006,07,25,09,39,19.10
2006,07,25,09,40,19.20
2006,07,25,09,41,19.30
2006,07,25,09,42,19.40
2006,07,25,09,43,19.50
2006,07,25,09,44,19.50
2006,07,25,09,45,19.60
2006,07,25,09,46,19.60
2006,07,25,09,47,19.70
2006,07,25,09,48,19.70
2006,07,25,09,49,19.60
2006,07,25,09,50,19.60
2006,07,25,09,51,19.70
2006,07,25,09,52,19.70
2006,07,25,09,53,19.80
2006,07,25,09,54,19.80
2006,07,25,09,55,19.90
2006,07,25,09,56,19.80
2006,07,25,09,57,19.90
2006,07,25,09,58,19.90
2006,07,25,09,59,19.80
2006,07,25,10,00,19.60
2006,07,25,10,01,19.40
2006,07,25,10,02,19.10
2006,07,25,10,03,19.00
2006,07,25,10,04,18.80
2006,07,25,10,05,18.70
2006,07,25,10,06,18.70
2006,07,25,10,07,18.70
2006,07,25,10,08,18.70
2006,07,25,10,09,18.60
2006,07,25,10,10,18.50
2006,07,25,10,11,18.30
2006,07,25,10,12,18.10
2006,07,25,10,13,18.00
2006,07,25,10,14,17.90
2006,07,25,10,15,17.90
2006,07,25,10,16,17.90
2006,07,25,10,17,18.10
2006,07,25,10,18,18.20
2006,07,25,10,19,18.30
2006,07,25,10,20,18.40
2006,07,25,10,21,18.60
2006,07,25,10,22,18.70
2006,07,25,10,23,18.90
2006,07,25,10,24,18.90
2006,07,25,10,25,19.00
2006,07,25,10,26,18.90
2006,07,25,10,27,19.00
2006,07,25,10,28,19.10
2006,07,25,10,29,19.30
2006,07,25,10,30,19.30
2006,07,25,10,31,19.30
2006,07,25,10,32,19.30
2006,07,25,10,33,19.30
2006,07,25,10,34,19.20
2006,07,25,10,35,19.20
2006,07,25,10,36,19.10
2006,07,25,10,37,19.20
2006,07,25,10,38,19.30
2006,07,25,10,39,19.40
2006,07,25,10,40,19.70
2006,07,25,10,41,19.90
2006,07,25,10,42,20.10
2006,07,25,10,43,20.30
2006,07,25,10,44,20.40
2006,07,25,10,45,20.40
2006,07,25,10,46,20.50
2006,07,25,10,47,20.50
2006,07,25,10,48,20.60
2006,07,25,10,49,20.70
2006,07,25,10,50,20.80
2006,07,25,10,51,20.90
2006,07,25,10,52,20.90
2006,07,25,10,53,20.80
2006,07,25,10,54,20.70
2006,07,25,10,55,20.60
2006,07,25,10,56,20.50
2006,07,25,10,57,20.40
2006,07,25,10,58,20.30
2006,07,25,10,59,20.20
2006,07,25,11,00,20.20
2006,07,25,11,01,20.20
2006,07,25,11,02,20.20
2006,07,25,11,03,20.30
2006,07,25,11,04,20.50
2006,07,25,11,05,20.70
2006,07,25,11,06,20.90
2006,07,25,11,07,20.90
2006,07,25,11,08,20.80
2006,07,25,11,09,20.70
2006,07,25,11,10,20.50
2006,07,25,11,11,20.50
2006,07,25,11,12,20.50
2006,07,25,11,13,20.50
2006,07,25,11,14,20.70
2006,07,25,11,15,20.80
2006,07,25,11,16,20.70
2006,07,25,11,17,20.50
2006,07,25,11,18,20.30
2006,07,25,11,19,20.10
2006,07,25,11,20,20.00
2006,07,25,11,21,19.80
2006,07,25,11,22,19.80
2006,07,25,11,23,19.70
2006,07,25,11,24,19.80
2006,07,25,11,25,19.80
2006,07,25,11,26,19.70
2006,07,25,11,27,19.70
2006,07,25,11,28,19.70
2006,07,25,11,29,19.70
2006,07,25,11,30,19.60
2006,07,25,11,31,19.60
2006,07,25,11,32,19.50
2006,07,25,11,33,19.30
2006,07,25,11,34,19.10
2006,07,25,11,35,19.10
2006,07,25,11,36,19.10
2006,07,25,11,37,18.90
2006,07,25,11,38,18.90
2006,07,25,11,39,18.90
2006,07,25,11,40,18.90
2006,07,25,11,41,19.00
2006,07,25,11,42,19.10
2006,07,25,11,43,19.10
2006,07,25,11,44,19.20
2006,07,25,11,45,19.30
2006,07,25,11,46,19.30
2006,07,25,11,47,19.30
2006,07,25,11,48,19.20
2006,07,25,11,49,19.20
2006,07,25,11,50,19.20
2006,07,25,11,51,19.20
2006,07,25,11,52,19.10
2006,07,25,11,53,19.10
2006,07,25,11,54,19.10
2006,07,25,11,55,19.30
2006,07,25,11,56,19.40
2006,07,25,11,57,19.50
2006,07,25,11,58,19.50
2006,07,25,11,59,19.40
2006,07,25,12,00,19.50
2006,07,25,12,01,19.60
2006,07,25,12,02,19.70
2006,07,25,12,03,19.60
2006,07,25,12,04,19.60
2006,07,25,12,05,19.70
2006,07,25,12,06,19.80
2006,07,25,12,07,19.80
2006,07,25,12,08,19.90
2006,07,25,12,09,19.90
2006,07,25,12,10,19.90
2006,07,25,12,11,20.00
2006,07,25,12,12,20.20
2006,07,25,12,13,20.20
2006,07,25,12,14,20.10
2006,07,25,12,15,19.90
2006,07,25,12,16,19.80
2006,07,25,12,17,19.80
2006,07,25,12,18,19.80
2006,07,25,12,19,19.80
2006,07,25,12,20,19.80
2006,07,25,12,21,19.70
2006,07,25,12,22,19.60
2006,07,25,12,23,19.60
2006,07,25,12,24,19.60
2006,07,25,12,25,19.80
2006,07,25,12,26,19.80
2006,07,25,12,27,19.80
2006,07,25,12,28,19.80
2006,07,25,12,29,19.80
2006,07,25,12,30,19.80
2006,07,25,12,31,19.90
2006,07,25,12,32,19.90
2006,07,25,12,33,19.90
2006,07,25,12,34,19.90
2006,07,25,12,35,19.90
2006,07,25,12,36,19.90
2006,07,25,12,37,19.70
2006,07,25,12,38,19.70
2006,07,25,12,39,19.60
2006,07,25,12,40,19.70
2006,07,25,12,41,19.80
2006,07,25,12,42,19.70
2006,07,25,12,43,19.70
2006,07,25,12,44,19.80
2006,07,25,12,45,19.90
2006,07,25,12,46,19.90
2006,07,25,12,47,20.00
2006,07,25,12,48,20.10
2006,07,25,12,49,20.20
2006,07,25,12,50,20.10
2006,07,25,12,51,20.10
2006,07,25,12,52,20.20
2006,07,25,12,53,20.30
2006,07,25,12,54,20.30
2006,07,25,12,55,20.30
2006,07,25,12,56,20.40
2006,07,25,12,57,20.60
2006,07,25,12,58,20.90
2006,07,25,12,59,21.00
2006,07,25,13,00,21.00
2006,07,25,13,01,21.00
2006,07,25,13,02,20.90
2006,07,25,13,03,20.90
2006,07,25,13,04,20.80
2006,07,25,13,05,20.70
2006,07,25,13,06,20.70
2006,07,25,13,07,20.70
2006,07,25,13,08,20.70
2006,07,25,13,09,20.70
2006,07,25,13,10,20.60
2006,07,25,13,11,20.50
2006,07,25,13,12,20.50
2006,07,25,13,13,20.50
2006,07,25,13,14,20.50
2006,07,25,13,15,20.50
2006,07,25,13,16,20.70
2006,07,25,13,17,20.70
2006,07,25,13,18,20.70
2006,07,25,13,19,20.70
2006,07,25,13,20,20.80
2006,07,25,13,21,20.80
2006,07,25,13,22,20.80
2006,07,25,13,23,20.70
2006,07,25,13,24,20.50
2006,07,25,13,25,20.40
2006,07,25,13,26,20.40
2006,07,25,13,27,20.40
2006,07,25,13,28,20.30
2006,07,25,13,29,20.20
2006,07,25,13,30,20.20
2006,07,25,13,31,20.10
2006,07,25,13,32,20.10
2006,07,25,13,33,20.10
2006,07,25,13,34,20.20
2006,07,25,13,35,20.20
2006,07,25,13,36,20.20
2006,07,25,13,37,20.20
2006,07,25,13,38,20.30
2006,07,25,13,39,20.40
2006,07,25,13,40,20.50
2006,07,25,13,41,20.70
2006,07,25,13,42,20.60
2006,07,25,13,43,20.50
2006,07,25,13,44,20.60
2006,07,25,13,45,20.60
2006,07,25,13,46,20.70
2006,07,25,13,47,20.80
2006,07,25,13,48,20.80
2006,07,25,13,49,20.80
2006,07,25,13,50,21.00
2006,07,25,13,51,21.00
2006,07,25,13,52,20.90
2006,07,25,13,53,20.90
2006,07,25,13,54,20.80
2006,07,25,13,55,20.80
2006,07,25,13,56,20.80
2006,07,25,13,57,20.90
2006,07,25,13,58,21.00
2006,07,25,13,59,21.10
2006,07,25,14,00,21.20
2006,07,25,14,01,21.20
2006,07,25,14,02,21.30
2006,07,25,14,03,21.40
2006,07,25,14,04,21.60
2006,07,25,14,05,21.80
2006,07,25,14,06,21.90
2006,07,25,14,07,21.80
2006,07,25,14,08,21.70
2006,07,25,14,09,21.50
2006,07,25,14,10,21.40
2006,07,25,14,11,21.20
2006,07,25,14,12,21.10
2006,07,25,14,13,21.00
2006,07,25,14,14,21.00
2006,07,25,14,15,21.20
2006,07,25,14,16,21.30
2006,07,25,14,17,21.20
2006,07,25,14,18,21.10
2006,07,25,14,19,20.90
2006,07,25,14,20,20.90
2006,07,25,14,21,20.80
2006,07,25,14,22,20.70
2006,07,25,14,23,20.60
2006,07,25,14,24,20.70
2006,07,25,14,25,20.70
2006,07,25,14,26,20.70
2006,07,25,14,27,20.70
2006,07,25,14,28,20.80
2006,07,25,14,29,20.80
2006,07,25,14,30,20.90
2006,07,25,14,31,20.90
2006,07,25,14,32,20.90
2006,07,25,14,33,21.00
2006,07,25,14,34,21.10
2006,07,25,14,35,21.10
2006,07,25,14,36,21.20
2006,07,25,14,37,21.30
2006,07,25,14,38,21.40
2006,07,25,14,39,21.50
2006,07,25,14,40,21.60
2006,07,25,14,41,21.70
2006,07,25,14,42,21.90
2006,07,25,14,43,22.00
2006,07,25,14,44,22.00
2006,07,25,14,45,21.90
2006,07,25,14,46,21.80
2006,07,25,14,47,21.90
2006,07,25,14,48,22.00
2006,07,25,14,49,22.10
2006,07,25,14,50,22.10
2006,07,25,14,51,22.10
2006,07,25,14,52,22.00
2006,07,25,14,53,22.00
2006,07,25,14,54,22.10
2006,07,25,14,55,22.10
2006,07,25,14,56,22.10
2006,07,25,14,57,22.10
2006,07,25,14,58,22.10
2006,07,25,14,59,22.10
2006,07,25,15,00,22.00
2006,07,25,15,01,22.00
2006,07,25,15,02,21.90
2006,07,25,15,03,21.80
2006,07,25,15,04,21.80
2006,07,25,15,05,21.70
2006,07,25,15,06,21.70
2006,07,25,15,07,21.80
2006,07,25,15,08,21.80
2006,07,25,15,09,21.80
2006,07,25,15,10,21.80
2006,07,25,15,11,21.90
2006,07,25,15,12,22.00
2006,07,25,15,13,22.10
2006,07,25,15,14,22.30
2006,07,25,15,15,22.40
2006,07,25,15,16,22.50
2006,07,25,15,17,22.70
2006,07,25,15,18,22.90
2006,07,25,15,19,23.10
2006,07,25,15,20,23.30
2006,07,25,15,21,23.60
2006,07,25,15,22,23.70
2006,07,25,15,23,23.90
2006,07,25,15,24,24.10
2006,07,25,15,25,24.30
2006,07,25,15,26,24.50
2006,07,25,15,27,24.90
2006,07,25,15,28,25.10
2006,07,25,15,29,25.30
2006,07,25,15,30,25.50
2006,07,25,15,31,25.60
2006,07,25,15,32,25.70
2006,07,25,15,33,25.80
2006,07,25,15,34,26.00
2006,07,25,15,35,26.20
2006,07,25,15,36,26.40
2006,07,25,15,37,26.70
2006,07,25,15,38,26.80
2006,07,25,15,39,26.90
2006,07,25,15,40,26.90
2006,07,25,15,41,26.90
2006,07,25,15,42,26.50
2006,07,25,15,43,26.00
2006,07,25,15,44,25.70
2006,07,25,15,45,25.50
2006,07,25,15,46,25.20
2006,07,25,15,47,24.90
2006,07,25,15,48,24.70
2006,07,25,15,49,24.50
2006,07,25,15,50,24.40
2006,07,25,15,51,24.30
2006,07,25,15,52,24.30
2006,07,25,15,53,24.30
2006,07,25,15,54,24.40
2006,07,25,15,55,24.50
2006,07,25,15,56,24.60
2006,07,25,15,57,24.80
2006,07,25,15,58,24.90
2006,07,25,15,59,25.10
2006,07,25,16,00,25.30
2006,07,25,16,01,25.40
2006,07,25,16,02,25.60
2006,07,25,16,03,25.70
2006,07,25,16,04,25.80
2006,07,25,16,05,25.90
2006,07,25,16,06,26.00
2006,07,25,16,07,26.00
2006,07,25,16,08,25.90
2006,07,25,16,09,25.90
2006,07,25,16,10,26.20
2006,07,25,16,11,26.40
2006,07,25,16,12,26.60
2006,07,25,16,13,26.60
2006,07,25,16,14,26.40
2006,07,25,16,15,26.30
2006,07,25,16,16,26.20
2006,07,25,16,17,26.00
2006,07,25,16,18,25.90
2006,07,25,16,19,25.90
2006,07,25,16,20,25.90
2006,07,25,16,21,26.00
2006,07,25,16,22,26.00
2006,07,25,16,23,26.00
2006,07,25,16,24,25.90
2006,07,25,16,25,25.90
2006,07,25,16,26,26.00
2006,07,25,16,27,26.00
2006,07,25,16,28,26.20
2006,07,25,16,29,26.40
2006,07,25,16,30,26.50
2006,07,25,16,31,26.40
2006,07,25,16,32,26.30
2006,07,25,16,33,26.10
2006,07,25,16,34,25.90
2006,07,25,16,35,25.90
2006,07,25,16,36,25.90
2006,07,25,16,37,26.00
2006,07,25,16,38,26.20
2006,07,25,16,39,26.20
2006,07,25,16,40,26.20
2006,07,25,16,41,26.30
2006,07,25,16,42,26.30
2006,07,25,16,43,26.30
2006,07,25,16,44,26.20
2006,07,25,16,45,26.10
2006,07,25,16,46,25.90
2006,07,25,16,47,25.80
2006,07,25,16,48,25.80
2006,07,25,16,49,25.70
2006,07,25,16,50,25.80
2006,07,25,16,51,25.90
2006,07,25,16,52,26.10
2006,07,25,16,53,26.20
2006,07,25,16,54,26.10
2006,07,25,16,55,26.00
2006,07,25,16,56,25.90
2006,07,25,16,57,25.90
2006,07,25,16,58,25.90
2006,07,25,16,59,25.80
2006,07,25,17,00,25.70
2006,07,25,17,01,25.60
2006,07,25,17,02,25.60
2006,07,25,17,03,25.50
2006,07,25,17,04,25.50
2006,07,25,17,05,25.60
2006,07,25,17,06,25.60
2006,07,25,17,07,25.60
2006,07,25,17,08,25.50
2006,07,25,17,09,25.30
2006,07,25,17,10,25.40
2006,07,25,17,11,25.50
2006,07,25,17,12,25.60
2006,07,25,17,13,25.80
2006,07,25,17,14,25.80
2006,07,25,17,15,25.90
2006,07,25,17,16,26.20
2006,07,25,17,17,26.30
2006,07,25,17,18,26.20
2006,07,25,17,19,26.30